TimeCST,TemperatureF,Dew PointF,Humidity,Sea Level PressureIn,VisibilityMPH,Wind Direction,Wind SpeedMPH,Gust SpeedMPH,PrecipitationIn,Events,Conditions,WindDirDegrees,DateUTC
12:35 AM,62.6,53.6,72,29.81,10.0,SSE,17.3,-,N/A,,Scattered Clouds,160,2011-11-26 06:35:00
12:55 AM,62.6,53.6,72,29.80,10.0,SSE,15.0,21.9,N/A,,Scattered Clouds,160,2011-11-26 06:55:00
1:15 AM,62.6,55.4,77,29.80,10.0,South,16.1,21.9,N/A,Rain,Rain,170,2011-11-26 07:15:00
1:35 AM,60.8,55.4,82,29.80,10.0,South,15.0,20.7,N/A,,Drizzle,170,2011-11-26 07:35:00
1:55 AM,60.8,55.4,82,29.80,7.0,South,10.4,23.0,0.02,Rain,Rain,170,2011-11-26 07:55:00
2:15 AM,60.8,55.4,82,29.80,10.0,South,9.2,16.1,0.01,,Drizzle,180,2011-11-26 08:15:00
2:35 AM,60.8,55.4,82,29.79,10.0,SSE,10.4,-,0.03,Rain,Rain,160,2011-11-26 08:35:00
2:55 AM,60.8,55.4,82,29.79,10.0,SSE,12.7,18.4,0.03,,Scattered Clouds,160,2011-11-26 08:55:00
3:15 AM,60.8,55.4,82,29.77,10.0,SSE,11.5,-,N/A,,Scattered Clouds,150,2011-11-26 09:15:00
3:35 AM,60.8,55.4,82,29.78,10.0,South,10.4,-,N/A,,Light Drizzle,180,2011-11-26 09:35:00
3:55 AM,60.8,57.2,88,29.77,10.0,South,9.2,-,N/A,Rain,Rain,170,2011-11-26 09:55:00
4:15 AM,60.8,57.2,88,29.77,10.0,South,10.4,-,0.01,Rain,Light Rain,180,2011-11-26 10:15:00
4:35 AM,60.8,57.2,88,29.76,10.0,South,11.5,17.3,0.01,,Overcast,170,2011-11-26 10:35:00
4:55 AM,60.8,57.2,88,29.77,10.0,South,10.4,-,0.01,,Mostly Cloudy,170,2011-11-26 10:55:00
5:15 AM,60.8,57.2,88,29.77,10.0,South,8.1,-,N/A,,Mostly Cloudy,170,2011-11-26 11:15:00
5:35 AM,60.8,57.2,88,29.77,10.0,South,8.1,-,N/A,,Mostly Cloudy,170,2011-11-26 11:35:00
5:55 AM,60.8,57.2,88,29.77,10.0,South,8.1,-,N/A,,Mostly Cloudy,180,2011-11-26 11:55:00
6:55 AM,59.0,57.2,94,29.80,10.0,South,8.1,-,N/A,,Mostly Cloudy,190,2011-11-26 12:55:00
8:55 AM,53.6,50.0,88,29.86,10.0,NNW,19.6,26.5,N/A,,Mostly Cloudy,330,2011-11-26 14:55:00
10:55 AM,55.4,46.4,72,29.94,10.0,NNW,27.6,33.4,N/A,,Overcast,330,2011-11-26 16:55:00
1:55 PM,48.2,39.2,71,30.01,10.0,NNW,23.0,28.8,N/A,,Overcast,340,2011-11-26 19:55:00
3:55 PM,48.2,39.2,71,30.03,10.0,NW,20.7,26.5,N/A,,Light Drizzle,320,2011-11-26 21:55:00
9:15 PM,48.2,30.2,50,30.20,10.0,North,19.6,29.9,N/A,,Clear,350,2011-11-27 03:15:00
9:35 PM,46.4,30.2,53,30.20,10.0,North,15.0,27.6,N/A,,Clear,350,2011-11-27 03:35:00
10:15 PM,46.4,24.8,43,30.21,10.0,North,23.0,28.8,N/A,,Clear,350,2011-11-27 04:15:00
10:35 PM,46.4,24.8,43,30.22,10.0,North,17.3,27.6,N/A,,Clear,350,2011-11-27 04:35:00
10:55 PM,46.4,23.0,40,30.22,10.0,North,18.4,29.9,N/A,,Clear,350,2011-11-27 04:55:00
11:15 PM,46.4,21.2,37,30.23,10.0,NNW,18.4,32.2,N/A,,Clear,340,2011-11-27 05:15:00
11:35 PM,44.6,21.2,39,30.23,10.0,North,25.3,34.5,N/A,,Clear,350,2011-11-27 05:35:00
11:55 PM,44.6,21.2,39,30.23,10.0,North,17.3,27.6,N/A,,Clear,350,2011-11-27 05:55:00